Regional Weather Roundup
Issued by NWS

Home | Current Version | Previous Version | Text Only | Print | Product List | Glossary On
Versions: 1 2 3 4 5 6 7 8 9 10 11 12 13 14 15 16 17 18 19 20 21 22 23 24 25 26 27 28 29 30 31 32 33 34 35 36 37 38 39 40 41 42 43 44 45 46 47 48 49 50
000
ASUS43 KOAX 191010
RWRNE

WEATHER ROUNDUP FOR NEBRASKA
NATIONAL WEATHER SERVICE OMAHA NE
500 AM CDT MON AUG 19 2019

NOTES: SATELLITE DATA IS BEING USED TO AUGMENT CLOUD COVER ABOVE
       12000 FEET.
       "FAIR" INDICATES FEW OR NO CLOUDS BELOW 12,000 FEET WITH NO
       SIGNIFICANT WEATHER AND/OR OBSTRUCTIONS TO VISIBILITY.


NEZ001>004-019>022-054>056-191100-
NEBRASKA PANHANDLE

CITY           SKY/WX    TMP DP  RH WIND       PRES   REMARKS
SCOTTSBLUFF    MOCLDY    63  62  97 SE6       29.97S FOG
ALLIANCE       FAIR      62  61  96 S14       29.96F
CHADRON        FAIR      63  59  87 S3        29.93S
GORDON         FAIR      62  60  93 CALM      29.97S
KIMBALL        FAIR      59  53  81 S9        30.04S
SIDNEY         FAIR      60  57  89 S3        30.02R
$$

NEZ057>060-069>072-079>082-191100-
SOUTHWEST NEBRASKA

CITY           SKY/WX    TMP DP  RH WIND       PRES   REMARKS
NORTH PLATTE   CLOUDY    66  65  96 SE10      29.99S FOG
IMPERIAL       FAIR      64  61  90 SE7       30.00R
LEXINGTON      FAIR      63  62  98 SE7       30.01S
MCCOOK         CLOUDY    68  67  96 E9        29.98S FOG
OGALLALA       FAIR      63  63  99 CALM      30.00R FOG
$$

NEZ005>010-023>029-035>040-094-191100-
NORTH CENTRAL NEBRASKA

CITY           SKY/WX    TMP DP  RH WIND       PRES   REMARKS
VALENTINE      MOCLDY    66  61  84 S6        29.97S
AINSWORTH      MOCLDY    62  62 100 S8        29.99S
BROKEN BOW     FAIR      60  60 100 SE3       30.01R
O`NEILL        FAIR      62  61  96 S7        30.00S
ORD            FAIR      59  58  96 CALM      29.99S FOG
THEDFORD       CLOUDY    65  64  97 SE8       30.01S FOG
$$

NEZ041-046>049-061>064-073>077-083>087-191100-
SOUTH CENTRAL NEBRASKA

CITY           SKY/WX    TMP DP  RH WIND       PRES   REMARKS
GRAND ISLAND   FAIR      62  60  93 SE3       30.01R FOG
AURORA         FAIR      60  60 100 SE3       30.01R FOG
HASTINGS       FAIR      65  63  93 E6        30.02R
HEBRON         FAIR      65  64  97 CALM      30.00R FOG
HOLDREGE       FAIR      63  63 100 E3        30.00S
KEARNEY        FAIR      61  61 100 E3        30.02R
YORK           FAIR      63  63 100 CALM      30.01R
$$

NEZ011>018-030>034-042>045-191100-
NORTHEAST NEBRASKA

CITY           SKY/WX    TMP DP  RH WIND       PRES   REMARKS
NORFOLK        FAIR      59  58  96 CALM      30.00S
ALBION         FOG       63  63  99 CALM      30.01R VSB 1/4
BLAIR          FAIR      66  65  97 N3        29.98S
COLUMBUS       FOG       61  61 100 NE3       30.01R VSB 1/2
FREMONT        MOCLDY    64  64  99 CALM      30.00R FOG
TEKAMAH        FOG       60  60 100 N5        29.99R VSB 3/4
WAYNE          FAIR      55  54  96 CALM      30.01R
$$

NEZ050>053-065>068-078-088>093-191100-
SOUTHEAST NEBRASKA

CITY           SKY/WX    TMP DP  RH WIND       PRES   REMARKS
LINCOLN        FAIR      64  62  93 CALM      29.99S
OMAHA EPPLEY   FAIR      68  67  96 N5        29.98R
BEATRICE       FAIR      65  65  99 CALM      29.99R FOG
FALLS CITY     FAIR      67  65  93 CALM      29.97R FOG
NEBRASKA CITY  CLOUDY    67  67 100 CALM      29.99R FOG
PLATTSMOUTH    MOCLDY    67  67 100 CALM      29.98S FOG
$$

NEZ044-045-051>053-067-191100-
OMAHA AREA

CITY           SKY/WX    TMP DP  RH WIND       PRES   REMARKS
OMAHA EPPLEY   FAIR      68  67  96 N5        29.98R
BLAIR          FAIR      66  65  97 N3        29.98S
FREMONT        MOCLDY    64  64  99 CALM      30.00R FOG
MILLARD        FAIR      67  66  96 CALM      29.98R FOG
OFFUTT AFB     PTCLDY    70  66  88 CALM      30.01R
PLATTSMOUTH    MOCLDY    67  67 100 CALM      29.98S FOG
WAHOO          FAIR      64  64 100 CALM      29.99R FOG
$$



USA.gov is the U.S. government's official web portal to all federal, state and local government web resources and services.